This is the latest recevied weather packets stored in our database for station/object W6TKD-13. If no packets are shown the sender has not sent any weather packets the latest 10 day(s).
| Time | Temp. | Humidity | Pressure | Rain* | Wind** | Luminosity | Snow |
|---|---|---|---|---|---|---|---|
| 1787857896 | 38.33° C | 11% | 1015.2 hPa | 0 mm | - | - | - |
| 1787857232 | 38.89° C | 11% | 1015.3 hPa | 0 mm | - | - | - |
| 1787856562 | 39.44° C | 10% | 1015.3 hPa | 0 mm | - | - | - |
| 1787855895 | 40.56° C | 10% | 1015.2 hPa | 0 mm | - | - | - |
| 1787854562 | 43.89° C | 9% | 1015.1 hPa | 0 mm | - | - | - |
| 1787853226 | 46.67° C | 9% | 1015.1 hPa | 0 mm | - | - | - |
| 1787852560 | 47.78° C | 9% | 1014.9 hPa | 0 mm | - | - | - |
| 1787851893 | 47.78° C | 9% | 1014.8 hPa | 0 mm | - | - | - |
| 1787851225 | 47.78° C | 10% | 1014.8 hPa | 0 mm | - | - | - |
| 1787850559 | 47.22° C | 11% | 1014.8 hPa | 0 mm | - | - | - |
| 1787849893 | 46.11° C | 13% | 1014.6 hPa | 0 mm | - | - | - |
| 1787849224 | 43.89° C | 15% | 1014.5 hPa | 0 mm | - | - | - |
| 1787848559 | 41.67° C | 17% | 1014.6 hPa | 0 mm | - | - | - |
| 1787847891 | 38.33° C | 20% | 1014.6 hPa | 0 mm | - | - | - |
| 1787847223 | 33.33° C | 24% | 1014.7 hPa | 0 mm | - | - | - |
| 1787846557 | 28.33° C | 28% | 1014.9 hPa | 0 mm | - | - | - |
| 1787845890 | 23.89° C | 31% | 1015 hPa | 0 mm | - | - | - |
| 1787845223 | 21.11° C | 31% | 1015.2 hPa | 0 mm | - | - | - |
| 1787844556 | 20.56° C | 31% | 1015.3 hPa | 0 mm | - | - | - |
| 1787843889 | 20° C | 31% | 1015.4 hPa | 0 mm | - | - | - |
| 1787843222 | 18.89° C | 31% | 1015.5 hPa | 0 mm | - | - | - |
| 1787842556 | 17.78° C | 31% | 1015.4 hPa | 0 mm | - | - | - |
| 1787841888 | 17.22° C | 30% | 1015.4 hPa | 0 mm | - | - | - |
| 1787841220 | 16.67° C | 30% | 1015.4 hPa | 0 mm | - | - | - |
| 1787840553 | 16.67° C | 29% | 1015.4 hPa | 0 mm | - | - | - |
* Rain since midnight (hover to see other rain measurements)
** Current wind speed in m/s (hover to see current wind gust speed)